"Pseudo-MPEC" for A10Ipyd

Created 2022 Aug 17 7:22:03 UT using Find_Orb

Click here for an explanation of pseudo-MPECs

 
 Astrometry: 
     A10Ipyd* C2022 08 050_kE$!h:nAstrometryc+!?S-NSRE#BMmredacted;k(4N6E3(DkM22
     A10Ipyd  C2022 08 05]2+QO7,o-`.40:3gclick\`Zhere7,K4-J!5nlL[w#0hd%vJ\^8FM22
     A10Ipyd  C2022 08 05RKfor35fHLLdQ:q;`Ja2_^jJ'T)WX?oJeGOS\;!bA?n[7JPQN74vM22
     A10Ipyd  C2022 08 05.8WbA4t;)D*sYgi4)dTQFE!vvPh:HVudexplanationQc8lF6MPdM22

Station data:
(M22) ATLAS South Africa, Sutherland  (S32.380156 E20.810590)  South Africa.

Orbital elements:  A10Ipyd
   Perigee 2022 Aug 5.95083 +/- 16 TT = 22:49:12 (JD 2459797.45083)
Epoch 2022 Aug  6.0 TT = JDT 2459797.5                        AutoNEOCP
q383911.797 +/- 2.77e+6             (J2000 equator)
H   29.1  G 0.15                    Peri.  127.17242 +/- 70
                                    Node   191.34842 +/- 70
e  40.6698338 +/- 0.237             Incl.    7.21687 +/- 2.1
From 4 observations 2022 Aug. 5 (16.9 min); mean residual 2".88
Residuals in arcseconds: 
220805 M22  3.0-  .43+    220805 M22  6.6+  .35-    
220805 M22  .08-  .37-    220805 M22  3.6-  .29+    

Ephemerides (geocentric):
Date (UTC) HH   RA             Dec           delta  r     elong  mag " sig PA
---- --------  ------------   ------------  ------ ------ -----  --- --------
2022 08 17 07  03 04 16.110   -04 08 35.61  .04207 1.0213 101.0 24.9  37d   4
2022 08 17 08  03 04 19.007   -04 08 41.45  .04222 1.0214 101.0 24.9  37d   4
2022 08 17 09  03 04 21.880   -04 08 47.26  .04237 1.0214 101.0 25.0  37d   4
2022 08 17 10  03 04 24.729   -04 08 53.05  .04252 1.0215 101.1 25.0  37d   4
2022 08 17 11  03 04 27.553   -04 08 58.82  .04267 1.0215 101.1 25.0  37d   4
2022 08 17 12  03 04 30.353   -04 09 04.57  .04282 1.0216 101.1 25.0  37d   4
2022 08 17 13  03 04 33.130   -04 09 10.29  .04298 1.0216 101.1 25.0  37d   4
2022 08 17 14  03 04 35.884   -04 09 15.98  .04313 1.0216 101.2 25.0  37d   4
2022 08 17 15  03 04 38.614   -04 09 21.66  .04328 1.0217 101.2 25.0  37d   4
2022 08 17 16  03 04 41.321   -04 09 27.31  .04343 1.0217 101.2 25.0  37d   4
2022 08 17 17  03 04 44.006   -04 09 32.94  .04358 1.0218 101.2 25.0  37d   4
2022 08 17 18  03 04 46.668   -04 09 38.55  .04373 1.0218 101.3 25.0  37d   4
2022 08 17 19  03 04 49.307   -04 09 44.14  .04389 1.0219 101.3 25.0  37d   4
2022 08 17 20  03 04 51.925   -04 09 49.71  .04404 1.0219 101.3 25.0  37d   4
2022 08 17 21  03 04 54.520   -04 09 55.25  .04419 1.0220 101.4 25.0  37d   4
2022 08 17 22  03 04 57.094   -04 10 00.78  .04434 1.0220 101.4 25.0  37d   4
2022 08 17 23  03 04 59.646   -04 10 06.28  .04449 1.0221 101.4 25.0  37d   4
2022 08 18 00  03 05 02.177   -04 10 11.77  .04464 1.0221 101.4 25.1  37d   4
2022 08 18 01  03 05 04.686   -04 10 17.24  .04479 1.0222 101.5 25.1  37d   4
2022 08 18 02  03 05 07.175   -04 10 22.69  .04495 1.0222 101.5 25.1  37d   4
2022 08 18 03  03 05 09.643   -04 10 28.12  .04510 1.0223 101.5 25.1  37d   4
2022 08 18 04  03 05 12.090   -04 10 33.53  .04525 1.0223 101.5 25.1  37d   4
2022 08 18 05  03 05 14.516   -04 10 38.92  .04540 1.0224 101.6 25.1  37d   4
2022 08 18 06  03 05 16.923   -04 10 44.30  .04555 1.0224 101.6 25.1  37d   4
2022 08 18 07  03 05 19.309   -04 10 49.65  .04570 1.0225 101.6 25.1  37d   4
2022 08 18 08  03 05 21.675   -04 10 54.99  .04585 1.0225 101.7 25.1  37d   4
2022 08 18 09  03 05 24.022   -04 11 00.32  .04600 1.0226 101.7 25.1  37d   4
2022 08 18 10  03 05 26.348   -04 11 05.62  .04616 1.0226 101.7 25.1  37d   4
2022 08 18 11  03 05 28.656   -04 11 10.92  .04631 1.0227 101.7 25.1  37d   4
2022 08 18 12  03 05 30.944   -04 11 16.19  .04646 1.0227 101.8 25.1  37d   4
2022 08 18 13  03 05 33.213   -04 11 21.45  .04661 1.0228 101.8 25.1  37d   4
2022 08 18 14  03 05 35.463   -04 11 26.69  .04676 1.0228 101.8 25.1  37d   4
2022 08 18 15  03 05 37.694   -04 11 31.92  .04691 1.0229 101.9 25.1  37d   4
2022 08 18 16  03 05 39.907   -04 11 37.13  .04706 1.0230 101.9 25.1  37d   4
2022 08 18 17  03 05 42.101   -04 11 42.33  .04721 1.0230 101.9 25.2  37d   4
2022 08 18 18  03 05 44.277   -04 11 47.51  .04736 1.0231 101.9 25.2  37d   4
2022 08 18 19  03 05 46.434   -04 11 52.68  .04752 1.0231 102.0 25.2  37d   4
2022 08 18 20  03 05 48.573   -04 11 57.84  .04767 1.0232 102.0 25.2  37d   4
2022 08 18 21  03 05 50.695   -04 12 02.98  .04782 1.0232 102.0 25.2  37d   4
2022 08 18 22  03 05 52.798   -04 12 08.10  .04797 1.0233 102.1 25.2  37d   4
2022 08 18 23  03 05 54.884   -04 12 13.22  .04812 1.0233 102.1 25.2  37d   4
2022 08 19 00  03 05 56.953   -04 12 18.32  .04827 1.0234 102.1 25.2  37d   4
2022 08 19 01  03 05 59.004   -04 12 23.41  .04842 1.0234 102.1 25.2  37d   4
2022 08 19 02  03 06 01.038   -04 12 28.48  .04857 1.0235 102.2 25.2  37d   4
2022 08 19 03  03 06 03.055   -04 12 33.54  .04872 1.0235 102.2 25.2  37d   4
2022 08 19 04  03 06 05.054   -04 12 38.59  .04887 1.0236 102.2 25.2  37d   4
2022 08 19 05  03 06 07.037   -04 12 43.63  .04902 1.0237 102.3 25.2  37d   4
2022 08 19 06  03 06 09.004   -04 12 48.66  .04917 1.0237 102.3 25.2  37d   4